Year,Month,Day,Hour,Minute,Value (Times are PST for temperature in C)
2015,03,05,00,00,3.70
2015,03,05,00,01,3.80
2015,03,05,00,02,3.80
2015,03,05,00,03,3.80
2015,03,05,00,04,3.80
2015,03,05,00,05,3.80
2015,03,05,00,06,3.80
2015,03,05,00,07,3.80
2015,03,05,00,08,3.80
2015,03,05,00,09,3.90
2015,03,05,00,10,3.90
2015,03,05,00,11,4.00
2015,03,05,00,12,4.00
2015,03,05,00,13,4.00
2015,03,05,00,14,4.00
2015,03,05,00,15,4.00
2015,03,05,00,16,4.00
2015,03,05,00,17,4.00
2015,03,05,00,18,3.90
2015,03,05,00,19,4.00
2015,03,05,00,20,4.00
2015,03,05,00,21,4.00
2015,03,05,00,22,4.00
2015,03,05,00,23,4.00
2015,03,05,00,24,4.00
2015,03,05,00,25,4.00
2015,03,05,00,26,3.90
2015,03,05,00,27,3.90
2015,03,05,00,28,3.80
2015,03,05,00,29,3.80
2015,03,05,00,30,3.80
2015,03,05,00,31,3.70
2015,03,05,00,32,3.60
2015,03,05,00,33,3.60
2015,03,05,00,34,3.50
2015,03,05,00,35,3.50
2015,03,05,00,36,3.40
2015,03,05,00,37,3.40
2015,03,05,00,38,3.40
2015,03,05,00,39,3.30
2015,03,05,00,40,3.30
2015,03,05,00,41,3.30
2015,03,05,00,42,3.30
2015,03,05,00,43,3.30
2015,03,05,00,44,3.30
2015,03,05,00,45,3.30
2015,03,05,00,46,3.30
2015,03,05,00,47,3.30
2015,03,05,00,48,3.30
2015,03,05,00,49,3.40
2015,03,05,00,50,3.40
2015,03,05,00,51,3.40
2015,03,05,00,52,3.40
2015,03,05,00,53,3.40
2015,03,05,00,54,3.40
2015,03,05,00,55,3.50
2015,03,05,00,56,3.50
2015,03,05,00,57,3.60
2015,03,05,00,58,3.60
2015,03,05,00,59,3.60
2015,03,05,01,00,3.70
2015,03,05,01,01,3.70
2015,03,05,01,02,3.70
2015,03,05,01,03,3.80
2015,03,05,01,04,3.80
2015,03,05,01,05,3.80
2015,03,05,01,06,3.80
2015,03,05,01,07,3.80
2015,03,05,01,08,3.80
2015,03,05,01,09,3.80
2015,03,05,01,10,3.80
2015,03,05,01,11,3.80
2015,03,05,01,12,3.80
2015,03,05,01,13,3.80
2015,03,05,01,14,3.80
2015,03,05,01,15,3.80
2015,03,05,01,16,3.80
2015,03,05,01,17,3.80
2015,03,05,01,18,3.80
2015,03,05,01,19,3.80
2015,03,05,01,20,3.80
2015,03,05,01,21,3.80
2015,03,05,01,22,3.80
2015,03,05,01,23,3.80
2015,03,05,01,24,3.80
2015,03,05,01,25,3.80
2015,03,05,01,26,3.80
2015,03,05,01,27,3.80
2015,03,05,01,28,3.80
2015,03,05,01,29,3.80
2015,03,05,01,30,3.80
2015,03,05,01,31,3.80
2015,03,05,01,32,3.70
2015,03,05,01,33,3.70
2015,03,05,01,34,3.70
2015,03,05,01,35,3.70
2015,03,05,01,36,3.70
2015,03,05,01,37,3.70
2015,03,05,01,38,3.70
2015,03,05,01,39,3.70
2015,03,05,01,40,3.70
2015,03,05,01,41,3.70
2015,03,05,01,42,3.70
2015,03,05,01,43,3.70
2015,03,05,01,44,3.70
2015,03,05,01,45,3.70
2015,03,05,01,46,3.80
2015,03,05,01,47,3.80
2015,03,05,01,48,3.80
2015,03,05,01,49,3.80
2015,03,05,01,50,3.80
2015,03,05,01,51,3.80
2015,03,05,01,52,3.80
2015,03,05,01,53,3.90
2015,03,05,01,54,3.90
2015,03,05,01,55,3.90
2015,03,05,01,56,3.90
2015,03,05,01,57,3.90
2015,03,05,01,58,3.90
2015,03,05,01,59,3.90
2015,03,05,02,00,3.90
2015,03,05,02,01,3.90
2015,03,05,02,02,3.90
2015,03,05,02,03,3.90
2015,03,05,02,04,3.90
2015,03,05,02,05,3.90
2015,03,05,02,06,4.00
2015,03,05,02,07,3.90
2015,03,05,02,08,3.90
2015,03,05,02,09,3.90
2015,03,05,02,10,3.90
2015,03,05,02,11,3.90
2015,03,05,02,12,3.90
2015,03,05,02,13,3.90
2015,03,05,02,14,3.90
2015,03,05,02,15,3.90
2015,03,05,02,16,3.90
2015,03,05,02,17,3.90
2015,03,05,02,18,3.90
2015,03,05,02,19,3.90
2015,03,05,02,20,3.90
2015,03,05,02,21,3.90
2015,03,05,02,22,3.90
2015,03,05,02,23,3.90
2015,03,05,02,24,3.90
2015,03,05,02,25,3.90
2015,03,05,02,26,3.90
2015,03,05,02,27,3.90
2015,03,05,02,28,3.90
2015,03,05,02,29,3.90
2015,03,05,02,30,3.90
2015,03,05,02,31,3.80
2015,03,05,02,32,3.80
2015,03,05,02,33,3.80
2015,03,05,02,34,3.80
2015,03,05,02,35,3.80
2015,03,05,02,36,3.80
2015,03,05,02,37,3.80
2015,03,05,02,38,3.80
2015,03,05,02,39,3.80
2015,03,05,02,40,3.80
2015,03,05,02,41,3.80
2015,03,05,02,42,3.80
2015,03,05,02,43,3.80
2015,03,05,02,44,3.80
2015,03,05,02,45,3.80
2015,03,05,02,46,3.80
2015,03,05,02,47,3.80
2015,03,05,02,48,3.80
2015,03,05,02,49,3.80
2015,03,05,02,50,3.70
2015,03,05,02,51,3.70
2015,03,05,02,52,3.60
2015,03,05,02,53,3.60
2015,03,05,02,54,3.60
2015,03,05,02,55,3.50
2015,03,05,02,56,3.50
2015,03,05,02,57,3.50
2015,03,05,02,58,3.50
2015,03,05,02,59,3.50
2015,03,05,03,00,3.40
2015,03,05,03,01,3.40
2015,03,05,03,02,3.40
2015,03,05,03,03,3.40
2015,03,05,03,04,3.30
2015,03,05,03,05,3.30
2015,03,05,03,06,3.30
2015,03,05,03,07,3.30
2015,03,05,03,08,3.30
2015,03,05,03,09,3.30
2015,03,05,03,10,3.30
2015,03,05,03,11,3.30
2015,03,05,03,12,3.30
2015,03,05,03,13,3.30
2015,03,05,03,14,3.30
2015,03,05,03,15,3.30
2015,03,05,03,16,3.30
2015,03,05,03,17,3.30
2015,03,05,03,18,3.30
2015,03,05,03,19,3.30
2015,03,05,03,20,3.30
2015,03,05,03,21,3.30
2015,03,05,03,22,3.30
2015,03,05,03,23,3.30
2015,03,05,03,24,3.30
2015,03,05,03,25,3.30
2015,03,05,03,26,3.30
2015,03,05,03,27,3.30
2015,03,05,03,28,3.30
2015,03,05,03,29,3.30
2015,03,05,03,30,3.30
2015,03,05,03,31,3.30
2015,03,05,03,32,3.40
2015,03,05,03,33,3.40
2015,03,05,03,34,3.40
2015,03,05,03,35,3.50
2015,03,05,03,36,3.50
2015,03,05,03,37,3.50
2015,03,05,03,38,3.50
2015,03,05,03,39,3.50
2015,03,05,03,40,3.60
2015,03,05,03,41,3.60
2015,03,05,03,42,3.60
2015,03,05,03,43,3.60
2015,03,05,03,44,3.60
2015,03,05,03,45,3.60
2015,03,05,03,46,3.60
2015,03,05,03,47,3.60
2015,03,05,03,48,3.60
2015,03,05,03,49,3.60
2015,03,05,03,50,3.60
2015,03,05,03,51,3.60
2015,03,05,03,52,3.60
2015,03,05,03,53,3.60
2015,03,05,03,54,3.60
2015,03,05,03,55,3.60
2015,03,05,03,56,3.60
2015,03,05,03,57,3.60
2015,03,05,03,58,3.60
2015,03,05,03,59,3.60
2015,03,05,04,00,3.60
2015,03,05,04,01,3.60
2015,03,05,04,02,3.60
2015,03,05,04,03,3.60
2015,03,05,04,04,3.60
2015,03,05,04,05,3.60
2015,03,05,04,06,3.60
2015,03,05,04,07,3.50
2015,03,05,04,08,3.50
2015,03,05,04,09,3.50
2015,03,05,04,10,3.60
2015,03,05,04,11,3.60
2015,03,05,04,12,3.60
2015,03,05,04,13,3.60
2015,03,05,04,14,3.60
2015,03,05,04,15,3.60
2015,03,05,04,16,3.50
2015,03,05,04,17,3.50
2015,03,05,04,18,3.50
2015,03,05,04,19,3.40
2015,03,05,04,20,3.40
2015,03,05,04,21,3.40
2015,03,05,04,22,3.40
2015,03,05,04,23,3.30
2015,03,05,04,24,3.30
2015,03,05,04,25,3.30
2015,03,05,04,26,3.30
2015,03,05,04,27,3.30
2015,03,05,04,28,3.30
2015,03,05,04,29,3.30
2015,03,05,04,30,3.20
2015,03,05,04,31,3.20
2015,03,05,04,32,3.10
2015,03,05,04,33,3.10
2015,03,05,04,34,3.10
2015,03,05,04,35,3.10
2015,03,05,04,36,3.10
2015,03,05,04,37,3.00
2015,03,05,04,38,2.90
2015,03,05,04,39,2.90
2015,03,05,04,40,2.90
2015,03,05,04,41,2.90
2015,03,05,04,42,2.90
2015,03,05,04,43,2.90
2015,03,05,04,44,2.90
2015,03,05,04,45,2.90
2015,03,05,04,46,2.90
2015,03,05,04,47,2.80
2015,03,05,04,48,2.80
2015,03,05,04,49,2.80
2015,03,05,04,50,2.80
2015,03,05,04,51,2.80
2015,03,05,04,52,2.80
2015,03,05,04,53,2.80
2015,03,05,04,54,2.80
2015,03,05,04,55,2.90
2015,03,05,04,56,2.90
2015,03,05,04,57,2.90
2015,03,05,04,58,2.90
2015,03,05,04,59,2.90
2015,03,05,05,00,2.90
2015,03,05,05,01,2.90
2015,03,05,05,02,3.10
2015,03,05,05,03,3.10
2015,03,05,05,04,3.10
2015,03,05,05,05,3.10
2015,03,05,05,06,3.20
2015,03,05,05,07,3.20
2015,03,05,05,08,3.20
2015,03,05,05,09,3.20
2015,03,05,05,10,3.20
2015,03,05,05,11,3.20
2015,03,05,05,12,3.20
2015,03,05,05,13,3.20
2015,03,05,05,14,3.20
2015,03,05,05,15,3.20
2015,03,05,05,16,3.20
2015,03,05,05,17,3.20
2015,03,05,05,18,3.20
2015,03,05,05,19,3.20
2015,03,05,05,20,3.20
2015,03,05,05,21,3.20
2015,03,05,05,22,3.20
2015,03,05,05,23,3.20
2015,03,05,05,24,3.20
2015,03,05,05,25,3.20
2015,03,05,05,26,3.20
2015,03,05,05,27,3.20
2015,03,05,05,28,3.30
2015,03,05,05,29,3.30
2015,03,05,05,30,3.30
2015,03,05,05,31,3.30
2015,03,05,05,32,3.30
2015,03,05,05,33,3.30
2015,03,05,05,34,3.30
2015,03,05,05,35,3.30
2015,03,05,05,36,3.30
2015,03,05,05,37,3.30
2015,03,05,05,38,3.30
2015,03,05,05,39,3.30
2015,03,05,05,40,3.30
2015,03,05,05,41,3.30
2015,03,05,05,42,3.30
2015,03,05,05,43,3.30
2015,03,05,05,44,3.30
2015,03,05,05,45,3.30
2015,03,05,05,46,3.30
2015,03,05,05,47,3.30
2015,03,05,05,48,3.30
2015,03,05,05,49,3.30
2015,03,05,05,50,3.30
2015,03,05,05,51,3.30
2015,03,05,05,52,3.30
2015,03,05,05,53,3.30
2015,03,05,05,54,3.30
2015,03,05,05,55,3.30
2015,03,05,05,56,3.20
2015,03,05,05,57,3.20
2015,03,05,05,58,3.20
2015,03,05,05,59,3.20
2015,03,05,06,00,3.20
2015,03,05,06,01,3.20
2015,03,05,06,02,3.20
2015,03,05,06,03,3.20
2015,03,05,06,04,3.20
2015,03,05,06,05,3.20
2015,03,05,06,06,3.20
2015,03,05,06,07,3.20
2015,03,05,06,08,3.20
2015,03,05,06,09,3.20
2015,03,05,06,10,3.20
2015,03,05,06,11,3.30
2015,03,05,06,12,3.30
2015,03,05,06,13,3.30
2015,03,05,06,14,3.30
2015,03,05,06,15,3.30
2015,03,05,06,16,3.30
2015,03,05,06,17,3.30
2015,03,05,06,18,3.20
2015,03,05,06,19,3.20
2015,03,05,06,20,3.20
2015,03,05,06,21,3.20
2015,03,05,06,22,3.20
2015,03,05,06,23,3.20
2015,03,05,06,24,3.20
2015,03,05,06,25,3.20
2015,03,05,06,26,3.10
2015,03,05,06,27,3.10
2015,03,05,06,28,3.10
2015,03,05,06,29,3.10
2015,03,05,06,30,3.10
2015,03,05,06,31,3.10
2015,03,05,06,32,3.10
2015,03,05,06,33,3.00
2015,03,05,06,34,2.90
2015,03,05,06,35,2.90
2015,03,05,06,36,2.90
2015,03,05,06,37,2.80
2015,03,05,06,38,2.80
2015,03,05,06,39,2.70
2015,03,05,06,40,2.70
2015,03,05,06,41,2.70
2015,03,05,06,42,2.70
2015,03,05,06,43,2.70
2015,03,05,06,44,2.70
2015,03,05,06,45,2.70
2015,03,05,06,46,2.70
2015,03,05,06,47,2.70
2015,03,05,06,48,2.70
2015,03,05,06,49,2.70
2015,03,05,06,50,2.70
2015,03,05,06,51,2.70
2015,03,05,06,52,2.70
2015,03,05,06,53,2.70
2015,03,05,06,54,2.60
2015,03,05,06,55,2.60
2015,03,05,06,56,2.60
2015,03,05,06,57,2.60
2015,03,05,06,58,2.60
2015,03,05,06,59,2.60
2015,03,05,07,00,2.50
2015,03,05,07,01,2.50
2015,03,05,07,02,2.50
2015,03,05,07,03,2.40
2015,03,05,07,04,2.40
2015,03,05,07,05,2.30
2015,03,05,07,06,2.30
2015,03,05,07,07,2.30
2015,03,05,07,08,2.20
2015,03,05,07,09,2.20
2015,03,05,07,10,2.20
2015,03,05,07,11,2.20
2015,03,05,07,12,2.20
2015,03,05,07,13,2.20
2015,03,05,07,14,2.20
2015,03,05,07,15,2.20
2015,03,05,07,16,2.30
2015,03,05,07,17,2.30
2015,03,05,07,18,2.30
2015,03,05,07,19,2.40
2015,03,05,07,20,2.40
2015,03,05,07,21,2.40
2015,03,05,07,22,2.50
2015,03,05,07,23,2.50
2015,03,05,07,24,2.60
2015,03,05,07,25,2.70
2015,03,05,07,26,2.70
2015,03,05,07,27,2.80
2015,03,05,07,28,2.80
2015,03,05,07,29,2.90
2015,03,05,07,30,2.90
2015,03,05,07,31,2.90
2015,03,05,07,32,2.90
2015,03,05,07,33,3.00
2015,03,05,07,34,3.10
2015,03,05,07,35,3.10
2015,03,05,07,36,3.10
2015,03,05,07,37,3.10
2015,03,05,07,38,3.10
2015,03,05,07,39,3.10
2015,03,05,07,40,3.10
2015,03,05,07,41,3.10
2015,03,05,07,42,3.10
2015,03,05,07,43,3.10
2015,03,05,07,44,3.10
2015,03,05,07,45,3.10
2015,03,05,07,46,3.10
2015,03,05,07,47,3.10
2015,03,05,07,48,3.10
2015,03,05,07,49,3.10
2015,03,05,07,50,3.10
2015,03,05,07,51,3.10
2015,03,05,07,52,3.10
2015,03,05,07,53,3.10
2015,03,05,07,54,3.10
2015,03,05,07,55,3.10
2015,03,05,07,56,3.10
2015,03,05,07,57,3.10
2015,03,05,07,58,3.10
2015,03,05,07,59,3.10
2015,03,05,08,00,3.10
2015,03,05,08,01,3.10
2015,03,05,08,02,3.10
2015,03,05,08,03,3.10
2015,03,05,08,04,3.10
2015,03,05,08,05,3.20
2015,03,05,08,06,3.20
2015,03,05,08,07,3.20
2015,03,05,08,08,3.30
2015,03,05,08,09,3.30
2015,03,05,08,10,3.30
2015,03,05,08,11,3.30
2015,03,05,08,12,3.30
2015,03,05,08,13,3.40
2015,03,05,08,14,3.40
2015,03,05,08,15,3.50
2015,03,05,08,16,3.50
2015,03,05,08,17,3.50
2015,03,05,08,18,3.60
2015,03,05,08,19,3.60
2015,03,05,08,20,3.70
2015,03,05,08,21,3.70
2015,03,05,08,22,3.70
2015,03,05,08,23,3.80
2015,03,05,08,24,3.80
2015,03,05,08,25,3.80
2015,03,05,08,26,3.80
2015,03,05,08,27,3.90
2015,03,05,08,28,4.00
2015,03,05,08,29,4.10
2015,03,05,08,30,4.20
2015,03,05,08,31,4.30
2015,03,05,08,32,4.40
2015,03,05,08,33,4.50
2015,03,05,08,34,4.60
2015,03,05,08,35,4.60
2015,03,05,08,36,4.70
2015,03,05,08,37,4.80
2015,03,05,08,38,4.90
2015,03,05,08,39,5.00
2015,03,05,08,40,5.10
2015,03,05,08,41,5.10
2015,03,05,08,42,5.30
2015,03,05,08,43,5.30
2015,03,05,08,44,5.40
2015,03,05,08,45,5.50
2015,03,05,08,46,5.60
2015,03,05,08,47,5.70
2015,03,05,08,48,5.70
2015,03,05,08,49,5.70
2015,03,05,08,50,5.70
2015,03,05,08,51,5.80
2015,03,05,08,52,5.80
2015,03,05,08,53,5.90
2015,03,05,08,54,6.00
2015,03,05,08,55,6.00
2015,03,05,08,56,6.00
2015,03,05,08,57,6.00
2015,03,05,08,58,6.10
2015,03,05,08,59,6.10
2015,03,05,09,00,6.10
2015,03,05,09,01,6.10
2015,03,05,09,02,6.10
2015,03,05,09,03,6.20
2015,03,05,09,04,6.20
2015,03,05,09,05,6.20
2015,03,05,09,06,6.30
2015,03,05,09,07,6.40
2015,03,05,09,08,6.40
2015,03,05,09,09,6.60
2015,03,05,09,10,6.60
2015,03,05,09,11,6.70
2015,03,05,09,12,6.80
2015,03,05,09,13,6.80
2015,03,05,09,14,6.90
2015,03,05,09,15,7.00
2015,03,05,09,16,7.00
2015,03,05,09,17,7.00
2015,03,05,09,18,7.00
2015,03,05,09,19,7.00
2015,03,05,09,20,7.00
2015,03,05,09,21,7.00
2015,03,05,09,22,7.00
2015,03,05,09,23,7.00
2015,03,05,09,24,7.00
2015,03,05,09,25,7.00
2015,03,05,09,26,7.10
2015,03,05,09,27,7.20
2015,03,05,09,28,7.30
2015,03,05,09,29,7.30
2015,03,05,09,30,7.50
2015,03,05,09,31,7.60
2015,03,05,09,32,7.70
2015,03,05,09,33,7.80
2015,03,05,09,34,7.80
2015,03,05,09,35,7.90
2015,03,05,09,36,8.00
2015,03,05,09,37,8.10
2015,03,05,09,38,8.20
2015,03,05,09,39,8.40
2015,03,05,09,40,8.50
2015,03,05,09,41,8.50
2015,03,05,09,42,8.60
2015,03,05,09,43,8.70
2015,03,05,09,44,8.70
2015,03,05,09,45,8.70
2015,03,05,09,46,8.60
2015,03,05,09,47,8.60
2015,03,05,09,48,8.50
2015,03,05,09,49,8.50
2015,03,05,09,50,8.50
2015,03,05,09,51,8.50
2015,03,05,09,52,8.50
2015,03,05,09,53,8.40
2015,03,05,09,54,8.40
2015,03,05,09,55,8.30
2015,03,05,09,56,8.30
2015,03,05,09,57,8.30
2015,03,05,09,58,8.30
2015,03,05,09,59,8.30
2015,03,05,10,00,8.20
2015,03,05,10,01,8.20
2015,03,05,10,02,8.20
2015,03,05,10,03,8.20
2015,03,05,10,04,8.20
2015,03,05,10,05,8.10
2015,03,05,10,06,8.00
2015,03,05,10,07,8.00
2015,03,05,10,08,8.00
2015,03,05,10,09,8.00
2015,03,05,10,10,8.00
2015,03,05,10,11,8.00
2015,03,05,10,12,8.00
2015,03,05,10,13,8.10
2015,03,05,10,14,8.10
2015,03,05,10,15,8.20
2015,03,05,10,16,8.20
2015,03,05,10,17,8.20
2015,03,05,10,18,8.20
2015,03,05,10,19,8.20
2015,03,05,10,20,8.20
2015,03,05,10,21,8.10
2015,03,05,10,22,8.10
2015,03,05,10,23,8.10
2015,03,05,10,24,8.20
2015,03,05,10,25,8.20
2015,03,05,10,26,8.20
2015,03,05,10,27,8.20
2015,03,05,10,28,8.30
2015,03,05,10,29,8.30
2015,03,05,10,30,8.40
2015,03,05,10,31,8.50
2015,03,05,10,32,8.50
2015,03,05,10,33,8.40
2015,03,05,10,34,8.40
2015,03,05,10,35,8.50
2015,03,05,10,36,8.50
2015,03,05,10,37,8.50
2015,03,05,10,38,8.50
2015,03,05,10,39,8.50
2015,03,05,10,40,8.50
2015,03,05,10,41,8.50
2015,03,05,10,42,8.50
2015,03,05,10,43,8.40
2015,03,05,10,44,8.40
2015,03,05,10,45,8.40
2015,03,05,10,46,8.40
2015,03,05,10,47,8.40
2015,03,05,10,48,8.50
2015,03,05,10,49,8.50
2015,03,05,10,50,8.40
2015,03,05,10,51,8.40
2015,03,05,10,52,8.40
2015,03,05,10,53,8.30
2015,03,05,10,54,8.30
2015,03,05,10,55,8.30
2015,03,05,10,56,8.20
2015,03,05,10,57,8.20
2015,03,05,10,58,8.20
2015,03,05,10,59,8.20
2015,03,05,11,00,8.20
2015,03,05,11,01,8.20
2015,03,05,11,02,8.30
2015,03,05,11,03,8.30
2015,03,05,11,04,8.40
2015,03,05,11,05,8.40
2015,03,05,11,06,8.50
2015,03,05,11,07,8.50
2015,03,05,11,08,8.50
2015,03,05,11,09,8.60
2015,03,05,11,10,8.60
2015,03,05,11,11,8.60
2015,03,05,11,12,8.50
2015,03,05,11,13,8.50
2015,03,05,11,14,8.50
2015,03,05,11,15,8.50
2015,03,05,11,16,8.40
2015,03,05,11,17,8.40
2015,03,05,11,18,8.50
2015,03,05,11,19,8.50
2015,03,05,11,20,8.50
2015,03,05,11,21,8.50
2015,03,05,11,22,8.40
2015,03,05,11,23,8.40
2015,03,05,11,24,8.40
2015,03,05,11,25,8.40
2015,03,05,11,26,8.30
2015,03,05,11,27,8.40
2015,03,05,11,28,8.30
2015,03,05,11,29,8.40
2015,03,05,11,30,8.40
2015,03,05,11,31,8.50
2015,03,05,11,32,8.50
2015,03,05,11,33,8.50
2015,03,05,11,34,8.60
2015,03,05,11,35,8.70
2015,03,05,11,36,8.70
2015,03,05,11,37,8.70
2015,03,05,11,38,8.60
2015,03,05,11,39,8.60
2015,03,05,11,40,8.50
2015,03,05,11,41,8.40
2015,03,05,11,42,8.40
2015,03,05,11,43,8.40
2015,03,05,11,44,8.40
2015,03,05,11,45,8.40
2015,03,05,11,46,8.40
2015,03,05,11,47,8.40
2015,03,05,11,48,8.50
2015,03,05,11,49,8.40
2015,03,05,11,50,8.40
2015,03,05,11,51,8.50
2015,03,05,11,52,8.60
2015,03,05,11,53,8.70
2015,03,05,11,54,8.70
2015,03,05,11,55,8.70
2015,03,05,11,56,8.60
2015,03,05,11,57,8.60
2015,03,05,11,58,8.60
2015,03,05,11,59,8.70
2015,03,05,12,00,8.80
2015,03,05,12,01,8.90
2015,03,05,12,02,9.00
2015,03,05,12,03,9.00
2015,03,05,12,04,9.00
2015,03,05,12,05,9.00
2015,03,05,12,06,8.90
2015,03,05,12,07,8.90
2015,03,05,12,08,8.80
2015,03,05,12,09,8.80
2015,03,05,12,10,8.80
2015,03,05,12,11,8.80
2015,03,05,12,12,8.70
2015,03,05,12,13,8.70
2015,03,05,12,14,8.90
2015,03,05,12,15,8.90
2015,03,05,12,16,8.90
2015,03,05,12,17,8.80
2015,03,05,12,18,8.80
2015,03,05,12,19,8.80
2015,03,05,12,20,8.80
2015,03,05,12,21,8.70
2015,03,05,12,22,8.70
2015,03,05,12,23,8.60
2015,03,05,12,24,8.60
2015,03,05,12,25,8.70
2015,03,05,12,26,8.70
2015,03,05,12,27,8.70
2015,03,05,12,28,8.70
2015,03,05,12,29,8.80
2015,03,05,12,30,8.80
2015,03,05,12,31,8.90
2015,03,05,12,32,8.90
2015,03,05,12,33,9.00
2015,03,05,12,34,9.00
2015,03,05,12,35,9.10
2015,03,05,12,36,9.20
2015,03,05,12,37,9.20
2015,03,05,12,38,9.10
2015,03,05,12,39,9.10
2015,03,05,12,40,9.00
2015,03,05,12,41,9.00
2015,03,05,12,42,8.90
2015,03,05,12,43,8.90
2015,03,05,12,44,8.80
2015,03,05,12,45,8.90
2015,03,05,12,46,8.90
2015,03,05,12,47,8.90
2015,03,05,12,48,8.90
2015,03,05,12,49,8.90
2015,03,05,12,50,9.00
2015,03,05,12,51,9.10
2015,03,05,12,52,9.20
2015,03,05,12,53,9.20
2015,03,05,12,54,9.20
2015,03,05,12,55,9.20
2015,03,05,12,56,9.30
2015,03,05,12,57,9.30
2015,03,05,12,58,9.40
2015,03,05,12,59,9.40
2015,03,05,13,00,9.40
2015,03,05,13,01,9.40
2015,03,05,13,02,9.40
2015,03,05,13,03,9.30
2015,03,05,13,04,9.30
2015,03,05,13,05,9.30
2015,03,05,13,06,9.30
2015,03,05,13,07,9.40
2015,03,05,13,08,9.40
2015,03,05,13,09,9.50
2015,03,05,13,10,9.50
2015,03,05,13,11,9.50
2015,03,05,13,12,9.40
2015,03,05,13,13,9.40
2015,03,05,13,14,9.40
2015,03,05,13,15,9.50
2015,03,05,13,16,9.50
2015,03,05,13,17,9.50
2015,03,05,13,18,9.50
2015,03,05,13,19,9.30
2015,03,05,13,20,9.20
2015,03,05,13,21,9.10
2015,03,05,13,22,9.10
2015,03,05,13,23,9.00
2015,03,05,13,24,9.00
2015,03,05,13,25,9.00
2015,03,05,13,26,9.20
2015,03,05,13,27,9.30
2015,03,05,13,28,9.40
2015,03,05,13,29,9.50
2015,03,05,13,30,9.60
2015,03,05,13,31,9.80
2015,03,05,13,32,9.80
2015,03,05,13,33,9.80
2015,03,05,13,34,9.70
2015,03,05,13,35,9.70
2015,03,05,13,36,9.70
2015,03,05,13,37,9.70
2015,03,05,13,38,9.70
2015,03,05,13,39,9.70
2015,03,05,13,40,9.60
2015,03,05,13,41,9.60
2015,03,05,13,42,9.50
2015,03,05,13,43,9.50
2015,03,05,13,44,9.40
2015,03,05,13,45,9.40
2015,03,05,13,46,9.40
2015,03,05,13,47,9.40
2015,03,05,13,48,9.40
2015,03,05,13,49,9.40
2015,03,05,13,50,9.40
2015,03,05,13,51,9.40
2015,03,05,13,52,9.40
2015,03,05,13,53,9.30
2015,03,05,13,54,9.30
2015,03,05,13,55,9.20
2015,03,05,13,56,9.20
2015,03,05,13,57,9.00
2015,03,05,13,58,9.00
2015,03,05,13,59,9.00
2015,03,05,14,00,9.10
2015,03,05,14,01,9.10
2015,03,05,14,02,9.10
2015,03,05,14,03,9.00
2015,03,05,14,04,9.00
2015,03,05,14,05,9.10
2015,03,05,14,06,9.20
2015,03,05,14,07,9.20
2015,03,05,14,08,9.20
2015,03,05,14,09,9.20
2015,03,05,14,10,9.10
2015,03,05,14,11,9.10
2015,03,05,14,12,9.10
2015,03,05,14,13,9.20
2015,03,05,14,14,9.20
2015,03,05,14,15,9.20
2015,03,05,14,16,9.30
2015,03,05,14,17,9.30
2015,03,05,14,18,9.40
2015,03,05,14,19,9.50
2015,03,05,14,20,9.50
2015,03,05,14,21,9.50
2015,03,05,14,22,9.50
2015,03,05,14,23,9.40
2015,03,05,14,24,9.40
2015,03,05,14,25,9.40
2015,03,05,14,26,9.40
2015,03,05,14,27,9.40
2015,03,05,14,28,9.50
2015,03,05,14,29,9.50
2015,03,05,14,30,9.60
2015,03,05,14,31,9.60
2015,03,05,14,32,9.60
2015,03,05,14,33,9.50
2015,03,05,14,34,9.50
2015,03,05,14,35,9.50
2015,03,05,14,36,9.50
2015,03,05,14,37,9.50
2015,03,05,14,38,9.50
2015,03,05,14,39,9.50
2015,03,05,14,40,9.40
2015,03,05,14,41,9.40
2015,03,05,14,42,9.40
2015,03,05,14,43,9.40
2015,03,05,14,44,9.30
2015,03,05,14,45,9.20
2015,03,05,14,46,9.20
2015,03,05,14,47,9.20
2015,03,05,14,48,9.20
2015,03,05,14,49,9.20
2015,03,05,14,50,9.20
2015,03,05,14,51,9.20
2015,03,05,14,52,9.20
2015,03,05,14,53,9.20
2015,03,05,14,54,9.20
2015,03,05,14,55,9.20
2015,03,05,14,56,9.20
2015,03,05,14,57,9.20
2015,03,05,14,58,9.20
2015,03,05,14,59,9.20
2015,03,05,15,00,9.20
2015,03,05,15,01,9.30
2015,03,05,15,02,9.30
2015,03,05,15,03,9.30
2015,03,05,15,04,9.40
2015,03,05,15,05,9.40
2015,03,05,15,06,9.40
2015,03,05,15,07,9.40
2015,03,05,15,08,9.40
2015,03,05,15,09,9.40
2015,03,05,15,10,9.40
2015,03,05,15,11,9.40
2015,03,05,15,12,9.40
2015,03,05,15,13,9.40
2015,03,05,15,14,9.50
2015,03,05,15,15,9.60
2015,03,05,15,16,9.60
2015,03,05,15,17,9.70
2015,03,05,15,18,9.70
2015,03,05,15,19,9.70
2015,03,05,15,20,9.70
2015,03,05,15,21,9.70
2015,03,05,15,22,9.70
2015,03,05,15,23,9.70
2015,03,05,15,24,9.70
2015,03,05,15,25,9.70
2015,03,05,15,26,9.70
2015,03,05,15,27,9.70
2015,03,05,15,28,9.70
2015,03,05,15,29,9.70
2015,03,05,15,30,9.70
2015,03,05,15,31,9.70
2015,03,05,15,32,9.70
2015,03,05,15,33,9.80
2015,03,05,15,34,9.80
2015,03,05,15,35,9.80
2015,03,05,15,36,9.80
2015,03,05,15,37,9.80
2015,03,05,15,38,9.80
2015,03,05,15,39,9.80
2015,03,05,15,40,9.80
2015,03,05,15,41,9.80
2015,03,05,15,42,9.90
2015,03,05,15,43,9.90
2015,03,05,15,44,9.90
2015,03,05,15,45,9.90
2015,03,05,15,46,9.90
2015,03,05,15,47,9.90
2015,03,05,15,48,9.80
2015,03,05,15,49,9.80
2015,03,05,15,50,9.70
2015,03,05,15,51,9.70
2015,03,05,15,52,9.60
2015,03,05,15,53,9.70
2015,03,05,15,54,9.70
2015,03,05,15,55,9.70
2015,03,05,15,56,9.70
2015,03,05,15,57,9.70
2015,03,05,15,58,9.70
2015,03,05,15,59,9.70
2015,03,05,16,00,9.80
2015,03,05,16,01,9.80
2015,03,05,16,02,9.80
2015,03,05,16,03,9.80
2015,03,05,16,04,9.90
2015,03,05,16,05,9.80
2015,03,05,16,06,9.80
2015,03,05,16,07,9.80
2015,03,05,16,08,9.70
2015,03,05,16,09,9.70
2015,03,05,16,10,9.70
2015,03,05,16,11,9.70
2015,03,05,16,12,9.70
2015,03,05,16,13,9.70
2015,03,05,16,14,9.70
2015,03,05,16,15,9.70
2015,03,05,16,16,9.70
2015,03,05,16,17,9.70
2015,03,05,16,18,9.70
2015,03,05,16,19,9.70
2015,03,05,16,20,9.70
2015,03,05,16,21,9.70
2015,03,05,16,22,9.70
2015,03,05,16,23,9.70
2015,03,05,16,24,9.60
2015,03,05,16,25,9.60
2015,03,05,16,26,9.60
2015,03,05,16,27,9.60
2015,03,05,16,28,9.60
2015,03,05,16,29,9.60
2015,03,05,16,30,9.60
2015,03,05,16,31,9.50
2015,03,05,16,32,9.50
2015,03,05,16,33,9.50
2015,03,05,16,34,9.50
2015,03,05,16,35,9.50
2015,03,05,16,36,9.50
2015,03,05,16,37,9.50
2015,03,05,16,38,9.40
2015,03,05,16,39,9.40
2015,03,05,16,40,9.40
2015,03,05,16,41,9.40
2015,03,05,16,42,9.40
2015,03,05,16,43,9.30
2015,03,05,16,44,9.30
2015,03,05,16,45,9.30
2015,03,05,16,46,9.20
2015,03,05,16,47,9.20
2015,03,05,16,48,9.20
2015,03,05,16,49,9.20
2015,03,05,16,50,9.20
2015,03,05,16,51,9.20
2015,03,05,16,52,9.20
2015,03,05,16,53,9.20
2015,03,05,16,54,9.20
2015,03,05,16,55,9.10
2015,03,05,16,56,9.10
2015,03,05,16,57,9.10
2015,03,05,16,58,9.10
2015,03,05,16,59,9.10
2015,03,05,17,00,9.10
2015,03,05,17,01,9.00
2015,03,05,17,02,9.00
2015,03,05,17,03,9.00
2015,03,05,17,04,9.00
2015,03,05,17,05,8.90
2015,03,05,17,06,8.90
2015,03,05,17,07,8.90
2015,03,05,17,08,8.90
2015,03,05,17,09,8.90
2015,03,05,17,10,8.80
2015,03,05,17,11,8.80
2015,03,05,17,12,8.70
2015,03,05,17,13,8.70
2015,03,05,17,14,8.70
2015,03,05,17,15,8.70
2015,03,05,17,16,8.70
2015,03,05,17,17,8.70
2015,03,05,17,18,8.70
2015,03,05,17,19,8.70
2015,03,05,17,20,8.70
2015,03,05,17,21,8.70
2015,03,05,17,22,8.70
2015,03,05,17,23,8.70
2015,03,05,17,24,8.70
2015,03,05,17,25,8.60
2015,03,05,17,26,8.60
2015,03,05,17,27,8.60
2015,03,05,17,28,8.50
2015,03,05,17,29,8.50
2015,03,05,17,30,8.50
2015,03,05,17,31,8.50
2015,03,05,17,32,8.40
2015,03,05,17,33,8.40
2015,03,05,17,34,8.40
2015,03,05,17,35,8.40
2015,03,05,17,36,8.30
2015,03,05,17,37,8.30
2015,03,05,17,38,8.30
2015,03,05,17,39,8.30
2015,03,05,17,40,8.20
2015,03,05,17,41,8.20
2015,03,05,17,42,8.20
2015,03,05,17,43,8.20
2015,03,05,17,44,8.20
2015,03,05,17,45,8.20
2015,03,05,17,46,8.20
2015,03,05,17,47,8.20
2015,03,05,17,48,8.20
2015,03,05,17,49,8.20
2015,03,05,17,50,8.20
2015,03,05,17,51,8.10
2015,03,05,17,52,8.10
2015,03,05,17,53,8.10
2015,03,05,17,54,8.10
2015,03,05,17,55,8.10
2015,03,05,17,56,8.10
2015,03,05,17,57,8.10
2015,03,05,17,58,8.10
2015,03,05,17,59,8.00
2015,03,05,18,00,8.00
2015,03,05,18,01,8.00
2015,03,05,18,02,8.00
2015,03,05,18,03,8.00
2015,03,05,18,04,8.00
2015,03,05,18,05,8.00
2015,03,05,18,06,7.90